[[{"header":{"parameterUnit":"m.s-1","parameterCategory":2,"la1":30.2991,"la2":30.254,"lo1":-89.0895,"lo2":-89.0444,"dy":0.0017,"dx":0.0017,"nx":28,"ny":28,"refTime":"2024-03-19T09:00:00:Z","depth":"0","parameterNumber":2,"parameterNumberName":"U-component_of_CURRENTS"},"data":[0,0,0,0,0,0,0,0,0,0,0,0,0,0,0,0,0,0,0,0,0,0,0,0,0,0,0,0,0,0,0,0,0,0,0,0,0,0,0,0,0,0,0,0,0,0,0,0,0,0,0,0,0,0,0,0,0,0,0.2209,0.221,0,0.2206,0.2205,0.2205,0.2195,0.2195,0.2195,0.2195,0.2174,0.2173,0.2173,0,0,0,0,0,0,0,0,0,0,0,0,0,0.2194,0.2195,0.2209,0.221,0.221,0.2206,0.2205,0.2205,0.2195,0.2195,0.2195,0.2195,0.2174,0.2173,0.2173,0,0,0,0,0,0,0,0,0,0,0,0,0,0.2195,0.2195,0.2209,0.2206,0.2206,0.2206,0.2205,0.2205,0.2195,0.2195,0.2195,0.2195,0.2174,0.2173,0.2173,0.2167,0,0,0.217,0.217,0,0,0,0,0,0,0,0,0.2195,0.2195,0.2206,0.2206,0.2206,0.2203,0.2192,0.2192,0.2195,0.2197,0.2195,0.2195,0.2183,0.2182,0.2178,0.2166,0.2165,0.217,0.2169,0.2169,0.2169,0,0,0,0,0,0,0,0.2195,0.2195,0.2206,0.2207,0.2206,0.22,0.22,0.2192,0.2188,0.2197,0.2197,0.22,0.2183,0.2179,0.2178,0.2165,0.217,0.2169,0.2169,0.2168,0.2182,0.2183,0,0,0,0,0,0,0.22,0.2195,0.2206,0.2206,0.2203,0.2201,0.22,0.2202,0.2189,0.2187,0.22,0.2199,0.218,0.2179,0.2177,0.2201,0.2169,0.2168,0.2168,0.2181,0.2183,0.2184,0,0,0,0,0,0,0.22,0.2201,0.2206,0.2202,0.2203,0.2201,0.2203,0.2202,0.2204,0.2192,0.2189,0.2204,0.218,0.2178,0.218,0.2199,0.2168,0.2167,0.218,0.2182,0.2183,0.223,0,0,0,0,0,0,0.22,0.2201,0.2202,0.2203,0.2203,0.2218,0.2203,0.2202,0.2207,0.2206,0.2194,0.2192,0.218,0.2181,0.2179,0.2197,0.2166,0.2179,0.2181,0.2183,0.2227,0.2233,0.2237,0,0,0,0,0,0.2199,0.2201,0.2202,0.2203,0.2205,0.2219,0.2219,0.2215,0.2207,0.2215,0.2205,0.2192,0.219,0.2181,0.2178,0.2197,0.2178,0.2181,0.2182,0.2225,0.2232,0.2237,0,0,0,0,0,0,0.2189,0.2201,0.2202,0.2205,0.2218,0.2218,0.2222,0.222,0.2218,0.2215,0.2199,0.2196,0.2208,0.2195,0.2185,0.2207,0.2184,0.2186,0.2218,0.2224,0.2228,0.2236,0.2166,0,0,0,0,0,0.219,0.2197,0.2209,0.2212,0.2221,0.2222,0.2226,0.2227,0.2227,0.2226,0.2217,0.221,0.2213,0.2212,0.221,0.2216,0.2223,0.2228,0.2233,0.2238,0.2243,0.2272,0.228,0.219,0.219,0.219,0,0,0.2184,0.2194,0.2195,0.2212,0.2218,0.2233,0.2224,0.2237,0.2245,0.2223,0.2228,0.2227,0.222,0.2232,0.2236,0.2223,0.2269,0.224,0.2244,0.2246,0.2275,0.2284,0.2291,0.2191,0.2191,0.2191,0,0,0.2185,0.219,0.2201,0.2215,0.2235,0.2241,0.2249,0.2257,0.2259,0.2267,0.2259,0.2271,0.2263,0.2269,0.2269,0.23,0.2297,0.23,0.2328,0.2357,0.2365,0.2371,0.2402,0.2411,0.23,0.23,0.23,0,0.2177,0.2195,0.2206,0.2224,0.2238,0.2248,0.2266,0.2271,0.2277,0.2288,0.2275,0.2293,0.2283,0.2311,0.2321,0.2313,0.2328,0.2305,0.2364,0.2371,0.2377,0.2406,0.2416,0.2302,0.2302,0.2302,0.2302,0,0.2191,0.2206,0.2216,0.2244,0.2259,0.2279,0.2295,0.2313,0.2316,0.2321,0.235,0.2345,0.2359,0.236,0.2345,0.2389,0.2387,0.237,0.235,0.2389,0.2417,0.2426,0.2306,0.2305,0.2304,0.2304,0,0,0.2169,0.2217,0.2219,0.2242,0.2275,0.229,0.2319,0.2352,0.2375,0.2382,0.2414,0.2421,0.2426,0.2427,0.2421,0.2439,0.2495,0.2423,0.2424,0.2455,0.2566,0.2576,0.2587,0.249,0.2492,0.2493,0.2572,0,0.2179,0.2218,0.2239,0.2275,0.23,0.2329,0.2353,0.2382,0.2405,0.2436,0.2449,0.2472,0.2449,0.2463,0.2481,0.2494,0.2519,0.2475,0.2521,0.2522,0.2528,0.2598,0.257,0.2639,0.258,0.2582,0.2583,0,0.2186,0.2215,0.2252,0.2305,0.2318,0.2337,0.2397,0.2421,0.247,0.2488,0.2524,0.2533,0.2573,0.2539,0.2593,0.2568,0.2573,0.2576,0.2579,0.2578,0.255,0.2588,0.2657,0.2643,0.2597,0.2596,0.2595,0,0.2171,0.2223,0.2256,0.2273,0.2329,0.2354,0.2385,0.2435,0.2474,0.2527,0.2567,0.2603,0.2638,0.2651,0.2666,0.2635,0.2723,0.268,0.2697,0.2697,0.2677,0.2673,0.2739,0.2719,0.2719,0.2719,0.2719,0,0.2174,0.2198,0.2252,0.2269,0.2305,0.2349,0.2393,0.2434,0.2505,0.2549,0.2591,0.2647,0.2668,0.272,0.2707,0.275,0.2764,0.2725,0.2727,0.2693,0.269,0.2677,0.266,0.2722,0.2721,0.2721,0.272,0,0.2146,0.2185,0.2221,0.2281,0.2298,0.2321,0.2394,0.2435,0.2507,0.2574,0.26,0.2706,0.2775,0.28,0.2838,0.282,0.2794,0.2845,0.2809,0.2806,0.2787,0.2773,0.2723,0.2621,0.2876,0.2877,0.2878,0,0.2134,0.2153,0.221,0.2231,0.2255,0.2298,0.2331,0.2415,0.2467,0.2605,0.2643,0.2757,0.2817,0.2912,0.2922,0.294,0.2837,0.2902,0.283,0.281,0.2796,0.2671,0.2577,0.2825,0.2825,0.2825,0.2826,0,0.2107,0.2126,0.2155,0.2191,0.2226,0.2266,0.2325,0.2365,0.2466,0.2544,0.2656,0.2728,0.2864,0.2901,0.2956,0.2952,0.2814,0.2906,0.2896,0.2783,0.264,0.2535,0.275,0.2827,0.2827,0.2827,0.2827,0.2827,0.2075,0.208,0.2114,0.2144,0.2179,0.2209,0.2208,0.2297,0.2366,0.2461,0.2594,0.2697,0.2849,0.2946,0.2918,0.293,0.2839,0.2869,0.2862,0.2742,0.2617,0.2843,0.2912,0.2913,0.2913,0.2913,0.2913,0,0.202,0.2036,0.2066,0.2081,0.2081,0.213,0.2181,0.2177,0.2213,0.2381,0.2471,0.2685,0.2787,0.2883,0.2985,0.2913,0.2736,0.2851,0.2679,0.2587,0.2827,0.28,0.2836,0.2836,0.2836,0.2836,0.2836,0.2836,0.1992,0.1986,0.1999,0.1968,0.198,0.1946,0.1949,0.1982,0.2079,0.2219,0.2368,0.252,0.2826,0.3057,0.3069,0.2977,0.2724,0.266,0.257,0.2795,0.2795,0.2795,0.2767,0.2795,0.2794,0.2232,0.2228,0.2225]},{"header":{"parameterUnit":"m.s-1","parameterCategory":2,"la1":30.2991,"la2":30.254,"lo1":-89.0895,"lo2":-89.0444,"dy":0.0017,"dx":0.0017,"nx":28,"ny":28,"refTime":"2024-03-19T09:00:00:Z","depth":"0","parameterNumber":3,"parameterNumberName":"V-component_of_CURRENTS"},"data":[0,0,0,0,0,0,0,0,0,0,0,0,0,0,0,0,0,0,0,0,0,0,0,0,0,0,0,0,0,0,0,0,0,0,0,0,0,0,0,0,0,0,0,0,0,0,0,0,0,0,0,0,0,0,0,0,0,0,-0.0236,-0.0236,0,-0.0258,-0.0259,-0.0259,-0.0278,-0.0278,-0.0278,-0.0278,-0.031,-0.031,-0.0311,0,0,0,0,0,0,0,0,0,0,0,0,0,-0.0234,-0.0234,-0.0236,-0.0236,-0.0237,-0.0258,-0.0259,-0.0259,-0.0278,-0.0278,-0.0278,-0.0278,-0.031,-0.031,-0.0311,0,0,0,0,0,0,0,0,0,0,0,0,0,-0.0244,-0.0234,-0.0236,-0.0248,-0.0249,-0.0258,-0.0259,-0.0259,-0.0278,-0.0278,-0.0278,-0.0278,-0.0309,-0.031,-0.0311,-0.0314,0,0,-0.0315,-0.0315,0,0,0,0,0,0,0,0,-0.0244,-0.0244,-0.0246,-0.0247,-0.0249,-0.0265,-0.027,-0.0278,-0.0277,-0.0267,-0.0278,-0.0278,-0.0295,-0.0297,-0.0302,-0.0315,-0.0316,-0.0315,-0.0315,-0.0316,-0.0316,0,0,0,0,0,0,0,-0.0243,-0.0244,-0.0246,-0.0246,-0.0248,-0.0261,-0.0262,-0.0272,-0.028,-0.0268,-0.0269,-0.0271,-0.0296,-0.0301,-0.0303,-0.0317,-0.0315,-0.0316,-0.0316,-0.0317,-0.0329,-0.0329,0,0,0,0,0,0,-0.0237,-0.0243,-0.0245,-0.0246,-0.0246,-0.026,-0.0262,-0.026,-0.028,-0.0283,-0.0271,-0.0272,-0.0299,-0.0301,-0.0304,-0.0297,-0.0316,-0.0317,-0.0317,-0.033,-0.0329,-0.0329,0,0,0,0,0,0,-0.0237,-0.0237,-0.0244,-0.0245,-0.0247,-0.026,-0.0258,-0.026,-0.0264,-0.0282,-0.0285,-0.0271,-0.0299,-0.0302,-0.0304,-0.0299,-0.0317,-0.0318,-0.033,-0.033,-0.0329,-0.029,0,0,0,0,0,0,-0.0237,-0.0237,-0.0233,-0.0244,-0.0246,-0.0242,-0.0257,-0.0261,-0.0264,-0.0266,-0.0283,-0.0287,-0.0299,-0.0302,-0.0305,-0.03,-0.0319,-0.0331,-0.033,-0.0329,-0.0292,-0.0288,-0.0285,0,0,0,0,0,-0.0237,-0.0226,-0.0232,-0.0233,-0.024,-0.0242,-0.0244,-0.0255,-0.0264,-0.026,-0.0271,-0.0286,-0.0301,-0.0303,-0.0306,-0.0302,-0.0331,-0.033,-0.0329,-0.0293,-0.0289,-0.0285,0,0,0,0,0,0,-0.0222,-0.0228,-0.0234,-0.0226,-0.0232,-0.0245,-0.0241,-0.0252,-0.0258,-0.0259,-0.0279,-0.0283,-0.0285,-0.0297,-0.0299,-0.0304,-0.032,-0.032,-0.0291,-0.0287,-0.0284,-0.0271,-0.032,0,0,0,0,0,-0.0217,-0.021,-0.0221,-0.0213,-0.0214,-0.0228,-0.0231,-0.0238,-0.0246,-0.0249,-0.0262,-0.0275,-0.0285,-0.0288,-0.0299,-0.0299,-0.0317,-0.03,-0.0296,-0.0294,-0.0285,-0.0309,-0.0307,-0.0327,-0.0327,-0.0327,0,0,-0.021,-0.0211,-0.0208,-0.021,-0.0215,-0.0206,-0.023,-0.0228,-0.022,-0.0251,-0.0243,-0.0264,-0.0283,-0.0283,-0.0285,-0.0292,-0.0298,-0.0293,-0.029,-0.0283,-0.0308,-0.0306,-0.0304,-0.0326,-0.0327,-0.0327,0,0,-0.0185,-0.0192,-0.0176,-0.0177,-0.018,-0.0189,-0.0186,-0.0197,-0.02,-0.0198,-0.022,-0.0234,-0.0246,-0.0259,-0.0267,-0.0253,-0.0282,-0.026,-0.0231,-0.0254,-0.0253,-0.0252,-0.0275,-0.0276,-0.0257,-0.0257,-0.0257,0,-0.0174,-0.0157,-0.0172,-0.0156,-0.0151,-0.0177,-0.0158,-0.0165,-0.0175,-0.0173,-0.0188,-0.0212,-0.0233,-0.0235,-0.0233,-0.0245,-0.0263,-0.0244,-0.025,-0.0249,-0.0249,-0.0273,-0.0275,-0.0255,-0.0255,-0.0255,-0.0256,0,-0.0137,-0.0124,-0.0114,-0.0102,-0.01,-0.0088,-0.0099,-0.0098,-0.0111,-0.0122,-0.0129,-0.0161,-0.0174,-0.0188,-0.0207,-0.0213,-0.0229,-0.0244,-0.0258,-0.0244,-0.0271,-0.0274,-0.0252,-0.0253,-0.0254,-0.0254,0,0,-0.0105,-0.009,-0.0084,-0.0068,-0.0069,-0.006,-0.0048,-0.0044,-0.0031,-0.0058,-0.0047,-0.0082,-0.0109,-0.012,-0.0152,-0.0176,-0.0197,-0.0206,-0.0208,-0.0226,-0.0248,-0.0268,-0.0274,-0.0215,-0.0215,-0.0215,-0.0269,0,-0.0067,-0.0024,-0.003,0.001,0.0031,0.0014,0.0034,0.0031,0.0016,0.0018,-0.0026,-0.0033,-0.008,-0.0088,-0.012,-0.0174,-0.0202,-0.0181,-0.0261,-0.0263,-0.0281,-0.0277,-0.0289,-0.0338,-0.0272,-0.0272,-0.0273,0,-0.0022,0.0001,0.0048,0.0077,0.0086,0.0104,0.0127,0.0135,0.0121,0.011,0.0082,0.0045,0.0006,-0.0037,-0.0124,-0.0109,-0.0172,-0.0221,-0.0225,-0.0257,-0.0288,-0.0342,-0.0346,-0.0523,-0.0277,-0.0277,-0.0276,0,0.0024,0.0059,0.01,0.011,0.0136,0.0158,0.0166,0.0167,0.0189,0.016,0.0171,0.0108,0.0089,-0.0,-0.0105,-0.0115,-0.0203,-0.023,-0.0308,-0.031,-0.0342,-0.0347,-0.0524,-0.029,-0.029,-0.0289,-0.0289,0,0.0073,0.0107,0.0128,0.0155,0.0213,0.0206,0.0259,0.0254,0.0264,0.03,0.022,0.0236,0.0097,0.0031,-0.0079,-0.0198,-0.0185,-0.03,-0.0324,-0.0329,-0.0332,-0.0505,-0.0606,-0.0291,-0.0291,-0.0291,-0.029,0,0.0122,0.0133,0.0185,0.0222,0.024,0.0278,0.0328,0.0368,0.0356,0.0399,0.0396,0.0336,0.024,0.0098,-0.0047,-0.0153,-0.0388,-0.032,-0.0318,-0.0341,-0.0581,-0.0678,-0.0877,-0.0989,-0.0416,-0.0417,-0.0417,0,0.0151,0.0186,0.0241,0.0281,0.0302,0.0355,0.0408,0.0418,0.0464,0.047,0.0508,0.0425,0.0391,0.0162,-0.0057,-0.0259,-0.0425,-0.0401,-0.0423,-0.0597,-0.0724,-0.0798,-0.0883,-0.0455,-0.0455,-0.0456,-0.0457,0,0.0212,0.0231,0.0277,0.0357,0.0419,0.0483,0.055,0.0608,0.0626,0.0658,0.0688,0.0658,0.043,0.0216,-0.0077,-0.0227,-0.0558,-0.0422,-0.0607,-0.0773,-0.0861,-0.0977,-0.042,-0.0463,-0.0463,-0.0462,-0.0462,-0.0462,0.0263,0.0304,0.0368,0.0445,0.0517,0.0607,0.067,0.0741,0.0821,0.0869,0.0834,0.08,0.0466,0.0063,-0.0169,-0.0618,-0.0626,-0.0744,-0.0847,-0.0905,-0.1022,-0.0477,-0.0545,-0.0544,-0.0544,-0.0544,-0.0544,0,0.0327,0.0375,0.0451,0.0545,0.0633,0.0652,0.077,0.0825,0.0924,0.0959,0.0972,0.0764,0.0367,-0.0054,-0.0639,-0.0967,-0.1112,-0.1164,-0.1286,-0.1354,-0.087,-0.088,-0.1017,-0.1017,-0.1017,-0.1017,-0.1016,-0.1016,0.0365,0.0451,0.0488,0.0635,0.0698,0.0809,0.0877,0.0946,0.099,0.0992,0.0945,0.0879,0.0486,-0.0478,-0.1238,-0.1412,-0.1684,-0.1724,-0.1877,-0.1554,-0.1523,-0.1494,-0.1528,-0.1799,-0.18,-0.2324,-0.2329,-0.2333]}],[{"header":{"parameterUnit":"m.s-1","parameterCategory":2,"la1":30.2991,"la2":30.254,"lo1":-89.0895,"lo2":-89.0444,"dy":0.0017,"dx":0.0017,"nx":28,"ny":28,"refTime":"2024-03-19T09:00:00:Z","depth":"2","parameterNumber":2,"parameterNumberName":"U-component_of_CURRENTS"},"data":[0,0,0,0,0,0,0,0,0,0,0,0,0,0,0,0,0,0,0,0,0,0,0,0,0,0,0,0,0,0,0,0,0,0,0,0,0,0,0,0,0,0,0,0,0,0,0,0,0,0,0,0,0,0,0,0,0,0,0.2178,0.2178,0,0.2176,0.2176,0.2175,0.2168,0.2168,0.2168,0.2168,0.2149,0.2149,0.2148,0,0,0,0,0,0,0,0,0,0,0,0,0,0.2162,0.2162,0.2178,0.2178,0.2179,0.2176,0.2175,0.2175,0.2168,0.2168,0.2168,0.2168,0.2149,0.2149,0.2148,0,0,0,0,0,0,0,0,0,0,0,0,0,0.2163,0.2162,0.2178,0.2176,0.2176,0.2176,0.2175,0.2175,0.2168,0.2168,0.2168,0.2168,0.215,0.2149,0.2148,0.2142,0,0,0.2146,0.2145,0,0,0,0,0,0,0,0,0.2163,0.2163,0.2176,0.2176,0.2176,0.2174,0.2163,0.2164,0.2168,0.2168,0.2168,0.2168,0.2157,0.2156,0.2153,0.2142,0.2141,0.2146,0.2145,0.2145,0.2145,0,0,0,0,0,0,0,0.2163,0.2163,0.2175,0.2176,0.2176,0.217,0.217,0.2163,0.2161,0.2168,0.2168,0.2172,0.2157,0.2153,0.2152,0.214,0.2146,0.2145,0.2144,0.2144,0.216,0.2161,0,0,0,0,0,0,0.2168,0.2164,0.2175,0.2175,0.2172,0.2171,0.2171,0.2173,0.2161,0.216,0.2172,0.2171,0.2155,0.2153,0.2151,0.2177,0.2145,0.2144,0.2144,0.216,0.2161,0.2162,0,0,0,0,0,0,0.2168,0.2169,0.2175,0.2171,0.2172,0.2171,0.2173,0.2173,0.2176,0.2164,0.2162,0.2176,0.2155,0.2152,0.2156,0.2175,0.2144,0.2143,0.2158,0.216,0.2161,0.2208,0,0,0,0,0,0,0.2168,0.2169,0.2171,0.2171,0.2172,0.2187,0.2174,0.2173,0.2178,0.2178,0.2168,0.2166,0.2154,0.2157,0.2155,0.2174,0.2142,0.2157,0.2159,0.2161,0.2205,0.2211,0.2216,0,0,0,0,0,0.2167,0.217,0.2171,0.2173,0.2175,0.2188,0.2188,0.2186,0.2179,0.2187,0.2179,0.2166,0.2167,0.2157,0.2154,0.2173,0.2156,0.2159,0.2161,0.2203,0.221,0.2215,0,0,0,0,0,0,0.2158,0.217,0.2171,0.2176,0.2188,0.2188,0.2193,0.2191,0.219,0.2189,0.2173,0.2171,0.2184,0.2171,0.2161,0.2184,0.2161,0.2163,0.2195,0.2201,0.2206,0.2213,0.2142,0,0,0,0,0,0.216,0.2167,0.2179,0.2183,0.2192,0.2193,0.2197,0.2199,0.2199,0.2199,0.2191,0.2186,0.2189,0.2189,0.2188,0.2194,0.22,0.2207,0.2212,0.2216,0.2221,0.225,0.2258,0.2168,0.2168,0.2168,0,0,0.2155,0.2164,0.2166,0.2183,0.2189,0.2204,0.2196,0.2209,0.2218,0.2197,0.2203,0.2203,0.2196,0.2209,0.2214,0.2201,0.2247,0.2219,0.2222,0.2225,0.2253,0.2261,0.2269,0.217,0.2169,0.2169,0,0,0.2156,0.2163,0.2174,0.2188,0.2208,0.2214,0.2221,0.223,0.2233,0.2242,0.2234,0.2247,0.2241,0.2247,0.2247,0.2279,0.2275,0.2279,0.2307,0.2335,0.2343,0.235,0.2379,0.2388,0.2279,0.2279,0.2279,0,0.215,0.2168,0.2179,0.2197,0.2211,0.2221,0.2239,0.2244,0.2251,0.2263,0.2251,0.227,0.2261,0.2289,0.2299,0.2291,0.2306,0.2284,0.2343,0.235,0.2356,0.2384,0.2393,0.2282,0.2281,0.2281,0.2281,0,0.2165,0.218,0.219,0.2217,0.2233,0.2253,0.2268,0.2286,0.2291,0.2297,0.2327,0.2322,0.2337,0.2338,0.2324,0.2368,0.2365,0.2349,0.2328,0.2368,0.2395,0.2404,0.2285,0.2284,0.2283,0.2283,0,0,0.2145,0.2192,0.2194,0.2216,0.2249,0.2264,0.2292,0.2326,0.235,0.2358,0.239,0.2398,0.2404,0.2405,0.24,0.2417,0.2472,0.2402,0.2402,0.2433,0.2543,0.2549,0.2559,0.2468,0.247,0.2471,0.2548,0,0.2155,0.2193,0.2214,0.225,0.2275,0.2303,0.2327,0.2356,0.2379,0.2412,0.2425,0.2448,0.2426,0.2442,0.2459,0.2472,0.2497,0.2454,0.2498,0.2499,0.2502,0.257,0.2326,0.2375,0.2556,0.2558,0.2559,0,0.2162,0.2191,0.2228,0.228,0.2293,0.2312,0.2371,0.2396,0.2445,0.2464,0.25,0.251,0.2549,0.2517,0.257,0.2545,0.255,0.2553,0.2556,0.2551,0.2523,0.2363,0.2384,0.2574,0.2572,0.2571,0.257,0,0.2149,0.22,0.2233,0.2249,0.2305,0.233,0.2361,0.2411,0.2449,0.2503,0.2543,0.2579,0.2614,0.2627,0.2642,0.2611,0.2698,0.2655,0.2668,0.2668,0.2464,0.2444,0.2694,0.2694,0.2694,0.2694,0.2693,0,0.2152,0.2176,0.2229,0.2246,0.2283,0.2326,0.2371,0.2411,0.2482,0.2526,0.2568,0.2623,0.2644,0.2694,0.2682,0.2722,0.2737,0.2695,0.2698,0.2476,0.2457,0.2622,0.2612,0.2696,0.2696,0.2695,0.2695,0,0.2125,0.2164,0.22,0.2259,0.2276,0.2299,0.2373,0.2414,0.2485,0.2552,0.2578,0.2681,0.2747,0.2772,0.2809,0.2789,0.2809,0.2812,0.2561,0.2533,0.2747,0.2739,0.2837,0.2838,0.2839,0.284,0.284,0,0.2114,0.2133,0.2189,0.2211,0.2235,0.2279,0.2312,0.2394,0.2445,0.2581,0.2618,0.273,0.2782,0.2872,0.2838,0.2842,0.2865,0.2638,0.2538,0.2774,0.2766,0.2756,0.2747,0.2279,0.2275,0.2271,0.2269,0,0.2088,0.2107,0.2136,0.2173,0.2208,0.2247,0.2306,0.2345,0.2444,0.2515,0.2623,0.2687,0.278,0.2688,0.2722,0.2687,0.2617,0.2577,0.2882,0.23,0.2259,0.2248,0.2255,0.2239,0.2242,0.2244,0.2246,0.2247,0.2057,0.2062,0.2096,0.2127,0.2162,0.2191,0.2191,0.2255,0.2314,0.2356,0.2511,0.2504,0.2533,0.2466,0.2406,0.2357,0.2536,0.2393,0.2397,0.2406,0.2348,0.2313,0.2292,0.2295,0.2298,0.23,0.2302,0,0.1994,0.202,0.205,0.2065,0.2055,0.2115,0.2163,0.2123,0.2121,0.2189,0.2232,0.207,0.2035,0.2065,0.1945,0.1981,0.19,0.1902,0.1741,0.1775,0.1803,0.1707,0.1485,0.1482,0.1479,0.1477,0,0,0.1965,0.1954,0.1967,0.1932,0.1953,0.19,0.1902,0.1862,0.1866,0.1807,0.1777,0.1902,0.2001,0.1691,0.1676,0.1552,0.1642,0.1498,0.2158,0.2001,0.2026,0.2102,0.1996,0,0,0,0,0]},{"header":{"parameterUnit":"m.s-1","parameterCategory":2,"la1":30.2991,"la2":30.254,"lo1":-89.0895,"lo2":-89.0444,"dy":0.0017,"dx":0.0017,"nx":28,"ny":28,"refTime":"2024-03-19T09:00:00:Z","depth":"2","parameterNumber":3,"parameterNumberName":"V-component_of_CURRENTS"},"data":[0,0,0,0,0,0,0,0,0,0,0,0,0,0,0,0,0,0,0,0,0,0,0,0,0,0,0,0,0,0,0,0,0,0,0,0,0,0,0,0,0,0,0,0,0,0,0,0,0,0,0,0,0,0,0,0,0,0,-0.015,-0.015,0,-0.0173,-0.0173,-0.0173,-0.0193,-0.0193,-0.0194,-0.0194,-0.0227,-0.0228,-0.0228,0,0,0,0,0,0,0,0,0,0,0,0,0,-0.0147,-0.0147,-0.015,-0.015,-0.0151,-0.0173,-0.0173,-0.0173,-0.0193,-0.0193,-0.0194,-0.0194,-0.0227,-0.0227,-0.0228,0,0,0,0,0,0,0,0,0,0,0,0,0,-0.0157,-0.0147,-0.015,-0.0163,-0.0164,-0.0173,-0.0173,-0.0174,-0.0193,-0.0193,-0.0194,-0.0194,-0.0226,-0.0227,-0.0228,-0.0229,0,0,-0.0232,-0.0232,0,0,0,0,0,0,0,0,-0.0156,-0.0157,-0.0161,-0.0162,-0.0164,-0.018,-0.0184,-0.0193,-0.0193,-0.0183,-0.0194,-0.0194,-0.0212,-0.0214,-0.0218,-0.0231,-0.0232,-0.0232,-0.0232,-0.0233,-0.0233,0,0,0,0,0,0,0,-0.0156,-0.0157,-0.016,-0.0161,-0.0163,-0.0175,-0.0177,-0.0186,-0.0196,-0.0184,-0.0185,-0.0187,-0.0213,-0.0217,-0.0219,-0.0233,-0.0232,-0.0233,-0.0233,-0.0234,-0.0247,-0.0247,0,0,0,0,0,0,-0.0151,-0.0156,-0.0159,-0.016,-0.016,-0.0175,-0.0177,-0.0175,-0.0196,-0.0199,-0.0186,-0.0188,-0.0215,-0.0218,-0.022,-0.0215,-0.0233,-0.0234,-0.0234,-0.0247,-0.0247,-0.0246,0,0,0,0,0,0,-0.015,-0.015,-0.0158,-0.0158,-0.016,-0.0175,-0.0172,-0.0175,-0.018,-0.0198,-0.0201,-0.0188,-0.0215,-0.0219,-0.0221,-0.0217,-0.0234,-0.0235,-0.0247,-0.0247,-0.0247,-0.0209,0,0,0,0,0,0,-0.015,-0.015,-0.0147,-0.0158,-0.016,-0.0157,-0.0172,-0.0175,-0.018,-0.0182,-0.02,-0.0204,-0.0216,-0.022,-0.0222,-0.0218,-0.0236,-0.0248,-0.0247,-0.0247,-0.021,-0.0207,-0.0204,0,0,0,0,0,-0.015,-0.014,-0.0146,-0.0147,-0.0155,-0.0156,-0.0158,-0.017,-0.018,-0.0177,-0.0188,-0.0203,-0.0219,-0.022,-0.0223,-0.022,-0.0248,-0.0247,-0.0247,-0.0212,-0.0208,-0.0204,0,0,0,0,0,0,-0.0136,-0.0142,-0.0149,-0.0141,-0.0147,-0.0159,-0.0157,-0.0168,-0.0175,-0.0176,-0.0196,-0.02,-0.0203,-0.0215,-0.0216,-0.0222,-0.0237,-0.0237,-0.0209,-0.0206,-0.0203,-0.019,-0.0237,0,0,0,0,0,-0.0132,-0.0125,-0.0136,-0.0129,-0.013,-0.0144,-0.0147,-0.0155,-0.0163,-0.0167,-0.0179,-0.0193,-0.0203,-0.0207,-0.0217,-0.0217,-0.0236,-0.0218,-0.0215,-0.0212,-0.0204,-0.0228,-0.0226,-0.0244,-0.0244,-0.0244,0,0,-0.0125,-0.0126,-0.0124,-0.0126,-0.0131,-0.0123,-0.0146,-0.0145,-0.0138,-0.0169,-0.0162,-0.0182,-0.02,-0.0201,-0.0203,-0.021,-0.0218,-0.0212,-0.0209,-0.0203,-0.0227,-0.0225,-0.0224,-0.0244,-0.0244,-0.0244,0,0,-0.0101,-0.0109,-0.0094,-0.0095,-0.0098,-0.0107,-0.0105,-0.0116,-0.012,-0.0118,-0.014,-0.0154,-0.0166,-0.0178,-0.0187,-0.0173,-0.0202,-0.018,-0.0153,-0.0176,-0.0174,-0.0173,-0.0198,-0.0199,-0.0178,-0.0177,-0.0177,0,-0.0092,-0.0075,-0.009,-0.0074,-0.0069,-0.0096,-0.0077,-0.0085,-0.0095,-0.0094,-0.0109,-0.0133,-0.0154,-0.0155,-0.0154,-0.0166,-0.0184,-0.0165,-0.0171,-0.0171,-0.0171,-0.0196,-0.0198,-0.0176,-0.0176,-0.0176,-0.0176,0,-0.0057,-0.0044,-0.0034,-0.0022,-0.002,-0.0009,-0.002,-0.0019,-0.0033,-0.0044,-0.0051,-0.0083,-0.0096,-0.0111,-0.0128,-0.0135,-0.0151,-0.0166,-0.0179,-0.0166,-0.0194,-0.0197,-0.0173,-0.0174,-0.0174,-0.0175,0,0,-0.0027,-0.0012,-0.0006,0.0011,0.0009,0.0019,0.003,0.0034,0.0046,0.0019,0.0029,-0.0006,-0.0033,-0.0044,-0.0075,-0.01,-0.0122,-0.0129,-0.0131,-0.015,-0.0174,-0.0196,-0.0201,-0.0139,-0.0139,-0.0139,-0.0195,0,0.0009,0.0052,0.0047,0.0086,0.0107,0.009,0.011,0.0108,0.0092,0.0094,0.005,0.0043,-0.0004,-0.0013,-0.0045,-0.0099,-0.0127,-0.0105,-0.0186,-0.0188,-0.0207,-0.0204,-0.0166,-0.0214,-0.0198,-0.0199,-0.0199,0,0.0053,0.0076,0.0123,0.0152,0.0161,0.0179,0.0201,0.0209,0.0195,0.0183,0.0154,0.0118,0.0079,0.0036,-0.0051,-0.0035,-0.0099,-0.0147,-0.0151,-0.0184,-0.0215,-0.0224,-0.022,-0.0204,-0.0204,-0.0204,-0.0203,0,0.0097,0.0132,0.0173,0.0182,0.0209,0.023,0.0239,0.0239,0.0261,0.0231,0.0242,0.0179,0.0158,0.007,-0.0035,-0.0043,-0.0133,-0.0157,-0.0237,-0.024,-0.0229,-0.023,-0.0218,-0.0218,-0.0218,-0.0218,-0.0218,0,0.0144,0.0178,0.0199,0.0226,0.0283,0.0276,0.0328,0.0323,0.0333,0.0367,0.0288,0.0303,0.0166,0.0099,-0.001,-0.013,-0.0116,-0.023,-0.0254,-0.0216,-0.0215,-0.0223,-0.0222,-0.022,-0.0219,-0.0219,-0.0219,0,0.0191,0.0203,0.0254,0.0291,0.0309,0.0346,0.0395,0.0434,0.0422,0.0462,0.0459,0.0399,0.0302,0.0161,0.0017,-0.0087,-0.0207,-0.0254,-0.0202,-0.0219,-0.0306,-0.0303,-0.0349,-0.035,-0.0351,-0.0352,-0.0353,0,0.0219,0.0253,0.0308,0.0347,0.0367,0.0419,0.0471,0.0482,0.0526,0.0531,0.0567,0.0482,0.0446,0.0217,0.0012,-0.0185,-0.0215,-0.0286,-0.03,-0.03,-0.0319,-0.0315,-0.031,-0.0273,-0.0273,-0.0273,-0.0273,0,0.0278,0.0296,0.0341,0.042,0.048,0.0544,0.0609,0.0665,0.0683,0.0712,0.0739,0.0705,0.0488,0.0294,0.0008,-0.0122,-0.0256,-0.0294,-0.03,-0.0247,-0.0233,-0.025,-0.0248,-0.0273,-0.0273,-0.0273,-0.0273,-0.0273,0.0326,0.0366,0.0429,0.0504,0.0575,0.0662,0.0725,0.0793,0.0869,0.0911,0.0872,0.0818,0.0592,0.0232,-0.0004,-0.0259,-0.0255,-0.0337,-0.0335,-0.0333,-0.0315,-0.0304,-0.0354,-0.0355,-0.0355,-0.0355,-0.0356,0,0.0394,0.0434,0.0508,0.06,0.0689,0.0705,0.082,0.088,0.0973,0.0991,0.0994,0.08,0.0561,0.0293,-0.0075,-0.0296,-0.0304,-0.0369,-0.0323,-0.032,-0.0319,-0.03,-0.0335,-0.0336,-0.0337,-0.0337,0,0,0.0432,0.0518,0.0554,0.0695,0.0751,0.0866,0.0932,0.1011,0.1049,0.108,0.1042,0.0946,0.0634,0.0373,0.0076,-0.0133,-0.018,-0.0175,-0.0165,-0.0073,-0.007,-0.0273,-0.0237,0,0,0,0,0]}],[{"header":{"parameterUnit":"m.s-1","parameterCategory":2,"la1":30.2991,"la2":30.254,"lo1":-89.0895,"lo2":-89.0444,"dy":0.0017,"dx":0.0017,"nx":28,"ny":28,"refTime":"2024-03-19T09:00:00:Z","depth":"4","parameterNumber":2,"parameterNumberName":"U-component_of_CURRENTS"},"data":[0,0,0,0,0,0,0,0,0,0,0,0,0,0,0,0,0,0,0,0,0,0,0,0,0,0,0,0,0,0,0,0,0,0,0,0,0,0,0,0,0,0,0,0,0,0,0,0,0,0,0,0,0,0,0,0,0,0,0.1356,0.1357,0,0.1403,0.1403,0.1404,0.1449,0.145,0.1451,0.1451,0.1509,0.151,0.1511,0,0,0,0,0,0,0,0,0,0,0,0,0,0.1296,0.1296,0.1356,0.1357,0.1357,0.1403,0.1403,0.1404,0.1449,0.145,0.1451,0.1452,0.1509,0.151,0.1511,0,0,0,0,0,0,0,0,0,0,0,0,0,0.1329,0.1297,0.1356,0.1387,0.139,0.1403,0.1403,0.1404,0.1449,0.145,0.1451,0.1452,0.1508,0.151,0.1511,0.1497,0,0,0.1515,0.1515,0,0,0,0,0,0,0,0,0.1327,0.1331,0.1381,0.1384,0.1388,0.1423,0.1403,0.1436,0.1449,0.1425,0.1451,0.1453,0.1481,0.1485,0.1489,0.15,0.1502,0.1515,0.1516,0.1516,0.1517,0,0,0,0,0,0,0,0.1324,0.1329,0.1373,0.1382,0.1386,0.1395,0.14,0.1409,0.1445,0.1427,0.1431,0.1438,0.1483,0.1488,0.1491,0.1503,0.1515,0.1516,0.1517,0.1517,0.1603,0.1604,0,0,0,0,0,0,0.1321,0.1327,0.1372,0.1375,0.1361,0.1395,0.1401,0.1409,0.1445,0.1452,0.1437,0.144,0.1485,0.1489,0.1493,0.1569,0.1516,0.1517,0.1518,0.1601,0.1603,0.1605,0,0,0,0,0,0,0.1319,0.1324,0.137,0.1353,0.1359,0.1395,0.1403,0.141,0.1447,0.1453,0.146,0.1472,0.1486,0.1491,0.1533,0.1568,0.1518,0.1519,0.16,0.1602,0.1604,0.1662,0,0,0,0,0,0,0.1317,0.1323,0.1342,0.1352,0.136,0.14,0.1403,0.141,0.1448,0.1454,0.1484,0.1489,0.1487,0.1531,0.1534,0.1569,0.152,0.1598,0.1601,0.1603,0.1658,0.1666,0.1673,0,0,0,0,0,0.1315,0.133,0.1342,0.1349,0.1379,0.1401,0.1406,0.1434,0.1449,0.1471,0.1495,0.149,0.1551,0.1533,0.1536,0.1572,0.1596,0.16,0.1603,0.1655,0.1665,0.1673,0,0,0,0,0,0,0.1313,0.1337,0.135,0.1373,0.1397,0.141,0.1436,0.1451,0.1486,0.1501,0.1506,0.1512,0.1564,0.1558,0.1538,0.1606,0.1574,0.1578,0.1613,0.1621,0.1629,0.1629,0.1521,0,0,0,0,0,0.132,0.1343,0.1362,0.1385,0.1401,0.1424,0.1442,0.1461,0.1485,0.1504,0.1525,0.1549,0.1573,0.1591,0.1609,0.1641,0.1641,0.1668,0.1675,0.1681,0.1684,0.1715,0.1725,0.1616,0.1616,0.1616,0,0,0.1325,0.1343,0.1357,0.1388,0.1411,0.1435,0.1439,0.1476,0.1504,0.1503,0.1559,0.1578,0.1589,0.1631,0.1653,0.1635,0.1714,0.1685,0.1691,0.169,0.1719,0.173,0.1739,0.1618,0.1618,0.1617,0,0,0.1339,0.1367,0.1388,0.1411,0.1451,0.1464,0.1483,0.1516,0.1544,0.1589,0.1601,0.1642,0.1677,0.1693,0.1702,0.1758,0.1753,0.1771,0.1807,0.1837,0.1846,0.1854,0.1875,0.1884,0.1773,0.1773,0.1773,0,0.1347,0.1376,0.1399,0.1425,0.1451,0.1482,0.1511,0.1537,0.1582,0.1611,0.1619,0.1692,0.1704,0.1751,0.1775,0.1775,0.1789,0.1772,0.1846,0.1854,0.1861,0.188,0.189,0.1776,0.1776,0.1775,0.1775,0,0.1368,0.1403,0.1421,0.1464,0.1493,0.1527,0.1561,0.1605,0.1644,0.1669,0.174,0.1761,0.1805,0.1818,0.1814,0.1876,0.1869,0.1853,0.1822,0.1876,0.1892,0.1901,0.1781,0.178,0.1779,0.1778,0,0,0.1351,0.1423,0.1432,0.1465,0.1521,0.1544,0.16,0.1655,0.17,0.1751,0.1809,0.1858,0.1882,0.1894,0.1904,0.1927,0.1992,0.1918,0.1918,0.1935,0.2062,0.1937,0.1934,0.1995,0.1996,0.1998,0.2056,0,0.1366,0.142,0.1454,0.1514,0.1545,0.1597,0.1643,0.1698,0.1751,0.1813,0.1853,0.1911,0.1906,0.1942,0.1968,0.1989,0.2017,0.1977,0.201,0.2011,0.189,0.194,0.2003,0.2062,0.2064,0.2065,0.2066,0,0.1368,0.1409,0.1468,0.1548,0.1568,0.161,0.17,0.1749,0.1832,0.1875,0.1941,0.1973,0.2036,0.2016,0.2082,0.2062,0.2072,0.2076,0.2078,0.1944,0.1901,0.1997,0.2082,0.2081,0.208,0.2078,0.2078,0,0.1335,0.1417,0.147,0.1496,0.1585,0.1634,0.1691,0.1775,0.1829,0.1927,0.1978,0.2044,0.2097,0.2122,0.2145,0.2127,0.22,0.2171,0.2067,0.2059,0.2128,0.2119,0.2215,0.2215,0.2214,0.2214,0.2214,0,0.1319,0.1365,0.1467,0.1493,0.1564,0.1634,0.1717,0.1781,0.1878,0.1937,0.2017,0.2064,0.213,0.2176,0.2175,0.2149,0.2232,0.208,0.2066,0.2152,0.2145,0.2134,0.2124,0.2216,0.2216,0.2215,0.2215,0,0.1266,0.1335,0.1401,0.151,0.155,0.1603,0.1729,0.1781,0.1887,0.1969,0.2007,0.2109,0.216,0.2205,0.2247,0.2182,0.217,0.2141,0.2242,0.2232,0.2001,0.1993,0.2021,0.2017,0.2014,0.2011,0.2009,0,0.1239,0.1271,0.1398,0.1442,0.1499,0.1591,0.1649,0.1769,0.1818,0.1972,0.1993,0.2099,0.2146,0.2103,0.216,0.2152,0.2124,0.2106,0.2035,0.1998,0.1982,0.198,0.1977,0.2004,0.2003,0.2002,0.2001,0,0.1185,0.1246,0.13,0.139,0.1465,0.1534,0.1626,0.1651,0.1782,0.1897,0.1922,0.1947,0.2002,0.2014,0.2031,0.202,0.2105,0.207,0.2076,0.2009,0.1977,0.1964,0.1965,0.1989,0.1991,0.1992,0.1993,0,0.1147,0.117,0.1252,0.1322,0.1408,0.1448,0.151,0.156,0.1622,0.1775,0.1779,0.1883,0.1977,0.1948,0.1963,0.1944,0.1905,0.1827,0.1844,0.1858,0.1776,0.1709,0.1634,0,0,0,0,0,0.1098,0.1117,0.1176,0.1245,0.1325,0.1375,0.1478,0.1538,0.1659,0.1629,0.1695,0.1729,0.1749,0.1803,0.1749,0.1903,0.1924,0.1834,0.1846,0.1926,0.1939,0.1857,0,0,0,0,0,0,0.1065,0.1115,0.1142,0.1164,0.1194,0.1268,0.1327,0.1414,0.1394,0.1518,0.153,0.1623,0.1663,0.1756,0.1714,0.1731,0.1702,0.1899,0.1894,0.1918,0.193,0.1941,0.1861,0,0,0,0,0]},{"header":{"parameterUnit":"m.s-1","parameterCategory":2,"la1":30.2991,"la2":30.254,"lo1":-89.0895,"lo2":-89.0444,"dy":0.0017,"dx":0.0017,"nx":28,"ny":28,"refTime":"2024-03-19T09:00:00:Z","depth":"4","parameterNumber":3,"parameterNumberName":"V-component_of_CURRENTS"},"data":[0,0,0,0,0,0,0,0,0,0,0,0,0,0,0,0,0,0,0,0,0,0,0,0,0,0,0,0,0,0,0,0,0,0,0,0,0,0,0,0,0,0,0,0,0,0,0,0,0,0,0,0,0,0,0,0,0,0,0.0153,0.0152,0,0.0129,0.0129,0.0128,0.0113,0.0113,0.0113,0.0113,0.0083,0.0082,0.0081,0,0,0,0,0,0,0,0,0,0,0,0,0,0.0163,0.0163,0.0153,0.0152,0.0152,0.0129,0.0129,0.0128,0.0114,0.0113,0.0113,0.0113,0.0083,0.0082,0.0081,0,0,0,0,0,0,0,0,0,0,0,0,0,0.0151,0.0163,0.0153,0.0142,0.014,0.0129,0.0129,0.0128,0.0114,0.0113,0.0113,0.0113,0.0083,0.0082,0.0081,0.0078,0,0,0.0078,0.0077,0,0,0,0,0,0,0,0,0.0152,0.0151,0.0144,0.0142,0.0141,0.0124,0.0121,0.0111,0.0114,0.0124,0.0113,0.0113,0.0096,0.0094,0.009,0.0076,0.0075,0.0078,0.0077,0.0077,0.0076,0,0,0,0,0,0,0,0.0153,0.0151,0.0143,0.0143,0.0142,0.013,0.0129,0.0119,0.0111,0.0123,0.0122,0.0119,0.0095,0.0091,0.0089,0.0074,0.0078,0.0077,0.0076,0.0076,0.005,0.005,0,0,0,0,0,0,0.0156,0.0152,0.0144,0.0143,0.0146,0.013,0.0128,0.013,0.0111,0.0108,0.0119,0.0118,0.0093,0.009,0.0088,0.0084,0.0077,0.0076,0.0075,0.005,0.005,0.005,0,0,0,0,0,0,0.0157,0.0156,0.0145,0.0146,0.0144,0.013,0.0132,0.0129,0.0125,0.0108,0.0105,0.0117,0.0093,0.009,0.0084,0.0083,0.0075,0.0074,0.005,0.005,0.005,0.0076,0,0,0,0,0,0,0.0157,0.0156,0.016,0.0147,0.0144,0.0144,0.0132,0.0129,0.0123,0.0122,0.0106,0.0103,0.0092,0.0085,0.0083,0.0081,0.0073,0.005,0.005,0.005,0.0075,0.0076,0.0078,0,0,0,0,0,0.0158,0.0165,0.016,0.0159,0.0149,0.0144,0.0142,0.0131,0.0124,0.0126,0.0114,0.0103,0.0082,0.0085,0.0081,0.008,0.005,0.005,0.005,0.0074,0.0076,0.0078,0,0,0,0,0,0,0.0173,0.0164,0.0158,0.0163,0.0155,0.0141,0.0142,0.0133,0.0125,0.0123,0.0106,0.0103,0.0096,0.0085,0.0087,0.0071,0.0063,0.0062,0.0082,0.0084,0.0086,0.0097,0.0073,0,0,0,0,0,0.0177,0.0181,0.0168,0.0173,0.017,0.0155,0.0152,0.0144,0.0134,0.013,0.0118,0.0104,0.0093,0.0087,0.0076,0.007,0.0053,0.0065,0.0067,0.0068,0.0074,0.0048,0.0048,0.005,0.005,0.005,0,0,0.0184,0.018,0.0181,0.0176,0.0169,0.0171,0.0153,0.015,0.0153,0.0128,0.0128,0.011,0.0093,0.0086,0.0081,0.0077,0.0057,0.0068,0.0069,0.0075,0.0048,0.0048,0.0048,0.005,0.005,0.005,0,0,0.0201,0.0196,0.0204,0.02,0.0191,0.0183,0.0183,0.0169,0.0165,0.016,0.0142,0.0126,0.0111,0.0097,0.0088,0.0091,0.0067,0.0084,0.01,0.0074,0.0074,0.0074,0.0047,0.0044,0.0083,0.0083,0.0083,0,0.021,0.022,0.0206,0.0213,0.0214,0.0191,0.0201,0.0193,0.0179,0.0177,0.0165,0.0135,0.0117,0.0107,0.0105,0.0095,0.0076,0.0096,0.0077,0.0076,0.0075,0.0048,0.0044,0.0085,0.0084,0.0084,0.0084,0,0.0232,0.024,0.0245,0.0247,0.0246,0.0251,0.0238,0.0235,0.0222,0.0209,0.0196,0.0167,0.015,0.0135,0.0121,0.0105,0.0092,0.0083,0.0074,0.0076,0.0047,0.0043,0.0086,0.0086,0.0086,0.0085,0,0,0.0255,0.026,0.0263,0.0273,0.0266,0.027,0.0274,0.0271,0.0275,0.0248,0.0249,0.0215,0.0192,0.018,0.0153,0.0126,0.0096,0.0103,0.0101,0.008,0.0037,0.0027,0.0021,0.0082,0.0081,0.0081,0.0017,0,0.0279,0.0303,0.0297,0.0322,0.0334,0.0319,0.0329,0.0321,0.0304,0.0297,0.0258,0.0246,0.0211,0.02,0.0168,0.0117,0.0087,0.0114,0.0035,0.0033,0.0026,0.0017,0.008,0.0014,0.0013,0.0012,0.0012,0,0.0306,0.032,0.0351,0.0368,0.0372,0.0384,0.0393,0.0396,0.0375,0.036,0.0331,0.0299,0.0258,0.0227,0.0141,0.016,0.0103,0.0058,0.0055,0.0036,0.0015,0.0011,0.0004,0.0004,0.0005,0.0005,0.0006,0,0.0339,0.0359,0.0388,0.0393,0.0407,0.0423,0.0428,0.0418,0.0427,0.0397,0.0395,0.0337,0.0313,0.0236,0.0141,0.014,0.0042,0.0029,-0.0033,-0.0035,-0.0018,-0.0017,-0.0031,-0.0031,-0.0031,-0.003,-0.003,0,0.0369,0.0394,0.0409,0.0427,0.0468,0.046,0.0494,0.0486,0.0481,0.0492,0.0432,0.0423,0.0313,0.0244,0.0154,0.0047,0.0051,-0.0031,-0.0052,-0.0007,-0.0003,-0.0021,-0.0019,-0.0033,-0.0032,-0.0032,-0.0031,0,0.0402,0.0411,0.0449,0.0474,0.0488,0.0515,0.0546,0.0564,0.055,0.0561,0.0556,0.0486,0.0387,0.0274,0.0142,0.007,-0.0034,-0.0073,-0.0017,-0.0033,-0.0099,-0.0095,-0.0149,-0.015,-0.015,-0.0151,-0.0151,0,0.0419,0.0444,0.0489,0.0515,0.0531,0.057,0.0601,0.0604,0.0619,0.0599,0.0607,0.052,0.0458,0.027,0.0142,-0.0034,-0.0059,-0.0111,-0.0107,-0.0096,-0.0111,-0.0106,-0.0101,-0.0153,-0.0153,-0.0153,-0.0153,0,0.0454,0.0473,0.0504,0.0559,0.0601,0.0642,0.0679,0.0698,0.0696,0.0691,0.0645,0.0541,0.0428,0.0271,0.0132,0.0008,-0.0076,-0.0119,-0.0119,-0.0116,-0.0102,-0.0114,-0.0109,-0.0156,-0.0155,-0.0155,-0.0155,0,0.0482,0.0508,0.055,0.0595,0.065,0.069,0.0708,0.0721,0.0735,0.0706,0.069,0.0561,0.0486,0.0292,0.0167,0.0039,0.0005,-0.0031,-0.0035,-0.0034,0.0015,0.0051,0.0026,0,0,0,0,0,0.0503,0.0531,0.0577,0.0625,0.0678,0.0708,0.0751,0.0759,0.0765,0.074,0.0713,0.0604,0.0406,0.0321,0.0191,0.0146,-0.0019,-0.001,-0.0063,-0.017,-0.0167,-0.013,0,0,0,0,0,0,0.0516,0.0565,0.058,0.0642,0.0676,0.0734,0.0763,0.0765,0.0745,0.073,0.0627,0.0575,0.0383,0.048,0.019,0.015,0.01,-0.0102,-0.0105,-0.0172,-0.0169,-0.0166,-0.0128,0,0,0,0,0]}]]